Regional Weather Roundup
Issued by NWS Midland/Odessa, TX

Skip options and go directly to product.
Home | Oldest Version | Next Version | Current Version | All | Text Only | Save Text | Print | Product List | Glossary On

Skip product version selection by date and time.   
224
ASUS44 KMAF 290610
RWRMAF
MIDLAND AREA WEATHER ROUNDUP
NATIONAL WEATHER SERVICE MIDLAND TX
100 AM CDT TUE JUL 29 2014

...IN SOUTHWEST TEXAS AND SOUTHEAST NEW MEXICO...

CITY           SKY/WX    TMP DP  RH WIND       PRES   REMARKS
ALPINE         CLEAR     71  53  53 CALM      30.31F
ANDREWS        FAIR      78  63  58 E14G21    30.21S
ARTESIA        PTCLDY    81  63  54 SE14G20   30.20R
BIG SPRING     CLOUDY    82  63  52 E15       30.19F
CARLSBAD       PTCLDY    83  61  47 SE18G25   30.18R
DRYDEN           N/A     87  60  40 E9        30.11R
FORT STOCKTON  CLEAR     80  50  34 S8        30.15F
GUAD PASS      PTCLDY    72  61  68 NE28      30.32F
HOBBS          CLEAR     75  63  64 E12       30.24S
MARFA          CLEAR     66  54  63 NE7       30.30S
MIDLAND AIRPK  CLEAR     81  64  57 E9        30.19S
MIDLAND INTL   CLEAR     81  64  56 E15       30.17F
ODESSA         CLEAR     81  63  54 E16       30.19S
PECOS          CLEAR     82  61  48 E7        30.13S
PRESIDIO       FAIR      86  51  29 NE15G21   30.10R
SEMINOLE       CLEAR     76  62  62 E9        30.23S
SNYDER         CLEAR     77  63  61 E12       30.19F
WINK           CLEAR     83  64  52 E16G26    30.14S
$$
...OTHER STATIONS IN TEXAS...

CITY           SKY/WX    TMP DP  RH WIND       PRES   REMARKS
ABILENE        CLEAR     78  59  51 E7        30.17F
AMARILLO       MOCLDY    66  62  87 SE10      30.29S
AUSTIN         PTCLDY    82  70  66 SW5       30.07R
BROWNSVILLE    CLEAR     78  76  93 SE6       30.06F
CORPUS CHRISTI PTCLDY    78  74  87 S7        30.04F
DALLAS FTW     MOCLDY    79  63  57 N8        30.12S
DEL RIO        CLEAR     86  62  44 E12       30.04R
EL PASO        CLOUDY    77  64  64 N18       30.17R
HOUSTON INT    CLOUDY    83  70  64 W5        30.06R
LUBBOCK        MOCLDY    70  63  78 E8        30.24F
SAN ANGELO     PTCLDY    81  66  60 E8        30.15R
SAN ANTONIO    PTCLDY    83  69  62 S7        30.08S
WACO           CLEAR     75  72  90 N3        30.10R
WICHITA FALLS  NOT AVBL
$$
...OTHER LOCATIONS IN NEW MEXICO...

CITY           SKY/WX    TMP DP  RH WIND       PRES   REMARKS
ALAMAGORDO     CLOUDY    73  63  68 NW10      30.26R
ALBUQUERQUE    CLOUDY    72  56  57 E17G23    30.32F
CANNON AFB     MOCLDY    70  66  88 E8        30.30R
CLOVIS         CLOUDY    68  64  88 E8        30.32S
HOLLOMAN AFB   RAIN      73  64  73 W10       30.23R
ROSWELL        TSTM      69  65  86 NE13G26   30.22F VSB 1/2
RUIDOSO        CLOUDY    63  59  88 SE10      30.45F
SANTA FE       LGT RAIN  63  57  81 SE8       30.41F
TRUTH OR CONSE CLOUDY    74  58  57 E5        30.26F
TUCUMCARI      MOCLDY    72  59  63 CALM      30.27R
$$

USA.gov is the U.S. government's official web portal to all federal, state and local government web resources and services.